Location: Laura�t
(43.9341°N, 0.2497°E)
Time: 10:20:01
(UTC+00:00)

FALCON 9 DEB - Pass Details

Date: 03 March 2021
Orbit: 424 x 435 km, 53.0° (Epoch: 18 April)

Event Time Altitude Azimuth Distance (km) Brightness Sun altitude
Rises 18:13:34 0° 306° (NW) 2,409 7.8 -5.0°
Reaches altitude 10° 18:15:56 10° 319° (NW) 1,537 6.5 -5.4°
Maximum altitude 18:18:53 26° 18° (NNE) 898 4.5 -6.0°
Drops below altitude 10° 18:21:48 10° 77° (ENE) 1,525 5.2 -6.5°
Enters shadow 18:22:10 - 80° (E) 1,649 5.4 -6.6°
